Location: Foligno
(42.9600°N, 12.7050°E)
Time: 19:34:00
(UTC+02:00)

ISS - Visible Passes

Search period start: 22 May 2018 00:00
Search period end: 01 June 2018 00:00
Orbit: 402 x 407 km, 51.6° (Epoch: 23 May)

Date Brightness Start Highest point End Pass type
(mag) Time Alt. Az. Time Alt. Az. Time Alt. Az.
22 May -0.9 01:31:11 10° NW 01:33:33 18° N 01:35:54 10° NE visible
22 May -2.4 03:07:34 10° NW 03:10:41 39° NNE 03:13:46 10° E visible
22 May -3.0 04:44:11 10° WNW 04:47:06 30° SW 04:50:00 10° SSE visible
22 May -3.6 21:24:10 10° SW 21:27:20 47° SE 21:30:29 10° ENE visible
22 May -1.8 23:00:58 10° W 23:03:55 30° NNW 23:06:52 10° NE visible
23 May -0.8 00:38:50 10° NW 00:41:08 18° N 00:43:27 10° NE visible
23 May -1.7 02:15:31 10° NW 02:18:23 27° NNE 02:21:15 10° E visible
23 May -3.9 03:51:50 10° WNW 03:55:03 57° SW 03:58:15 10° SE visible
23 May -2.6 22:08:29 10° W 22:11:38 44° NNW 22:14:48 10° NE visible
23 May -0.9 23:46:19 10° NW 23:48:43 19° N 23:51:07 10° NE visible
24 May -1.2 01:23:25 10° NW 01:26:02 22° NNE 01:27:56 14° ENE visible
24 May -1.4 02:59:39 10° NW 03:07:35 - ESE 03:00:20 15° NW visible
24 May -3.6 21:16:08 10° WSW 21:19:25 75° NNW 21:22:41 10° NE visible
24 May -1.1 22:53:42 10° WNW 22:56:19 21° NNW 22:58:55 10° NE visible
25 May -1.0 00:31:12 10° NW 00:33:37 19° N 00:35:45 11° NE visible
25 May -1.2 02:07:31 10° NW 02:08:20 16° NW 02:08:20 16° NW visible
25 May -1.5 22:01:04 10° W 22:03:55 27° NNW 22:06:47 10° NE visible
25 May -0.9 23:38:52 10° NW 23:41:10 18° N 23:43:29 10° NE visible
26 May -1.5 01:15:25 10° NW 01:17:17 24° NNW 01:17:17 24° NNW visible
26 May -2.2 21:08:29 10° W 21:11:35 38° NNW 21:14:40 10° NE visible
26 May -0.9 22:46:21 10° NW 22:48:42 18° N 22:51:03 10° NE visible
27 May -1.6 00:23:17 10° NW 00:26:00 23° NNE 00:26:28 23° NNE visible
27 May -1.1 21:53:43 10° WNW 21:56:15 20° N 21:58:47 10° NE visible
27 May -1.2 23:31:05 10° NW 23:33:34 19° N 23:35:45 11° NE visible
28 May -1.3 01:07:21 10° NW 01:08:22 18° NW 01:08:22 18° NW visible
28 May -1.0 22:38:46 10° NW 22:41:06 18° N 22:43:26 10° NE visible
29 May -2.1 00:15:12 10° NW 00:17:43 32° N 00:17:43 32° N visible
29 May -1.0 21:46:16 10° NW 21:48:35 18° N 21:50:55 10° NE visible
29 May -1.8 23:23:03 10° NW 23:25:52 25° NNE 23:27:05 20° NE visible
30 May -0.9 00:59:19 10° WNW 00:59:43 13° WNW 00:59:43 13° WNW visible
30 May -1.4 22:30:50 10° NW 22:33:24 21° NNE 22:35:58 10° ENE visible
31 May -2.2 00:07:04 10° NW 00:09:07 34° NW 00:09:07 34° NW visible
31 May -1.2 21:38:31 10° NW 21:40:54 18° N 21:43:15 10° NE visible
31 May -2.8 23:14:53 10° NW 23:18:00 40° NNE 23:18:32 37° NE visible
